Temperature
25 23 23 23 24 25 25 24 24 24 25 24 23 23 22 22 22 22 22 22 22 22 23 22 22 22 21 21 21 21 20 20 20 19 19 19 19 19 19 18 18 18 18 18
23 23 24 25 25 25 24 24 24 24 25 24 23 23 23 22 22 22 22 22 22 23 23 22 22 22 22 21 21 21 20 20 20 20 19 19 19 19 19 18 18 18 18 18
24 24 25 25 25 25 24 24 24 24 24 23 23 23 22 22 23 23 23 23 23 23 23 23 22 22 22 22 21 21 21 20 20 20 19 19 19 19 18 18 18 18 18 18
24 24 25 25 25 25 24 25 25 24 23 21 23 22 22 22 22 22 22 22 23 23 23 23 23 22 22 22 22 21 21 20 20 20 19 19 19 19 19 18 18 18 18 18
24 25 25 25 26 25 24 24 24 23 22 21 21 21 21 21 21 21 21 22 23 23 23 23 23 23 23 22 22 21 21 20 20 20 19 19 19 19 19 18 18 18 18 18
24 25 25 25 26 25 24 23 22 20 20 21 21 21 21 20 21 21 22 22 23 23 23 23 23 23 23 22 22 21 21 21 20 20 20 19 19 19 19 18 18 18 18 18
24 25 25 25 25 25 23 22 21 21 20 20 20 21 21 22 21 21 22 22 23 23 23 23 23 23 22 22 22 21 21 21 20 20 20 20 19 19 19 19 18 18 18 18
23 23 24 25 25 24 23 22 21 22 21 20 20 20 21 22 22 22 22 22 23 23 23 23 23 23 23 22 22 22 21 21 21 20 20 20 19 19 19 19 18 18 18 18
22 23 24 24 24 24 23 21 21 19 20 20 20 20 21 21 21 21 22 22 22 22 23 23 23 23 23 22 22 22 22 21 21 20 20 20 19 19 19 18 18 18 18 18
22 23 23 24 24 23 22 20 18 19 20 21 21 21 20 21 21 21 21 21 22 22 22 22 23 23 23 22 22 22 22 21 21 20 20 20 19 19 19 18 18 18 18 17
21 22 23 23 23 23 22 20 18 17 18 20 20 21 21 20 20 20 20 21 22 22 22 22 22 22 22 22 22 22 21 21 20 20 20 20 19 19 19 18 18 18 18 17
19 19 20 22 22 22 22 21 18 20 19 17 19 20 22 20 20 20 20 21 22 22 22 22 22 22 22 22 22 21 21 21 21 20 20 20 19 19 18 18 18 18 17 17
20 19 20 21 21 22 22 20 18 17 17 16 18 21 21 19 19 20 20 21 21 21 22 22 22 21 21 21 21 21 21 21 20 20 20 19 19 19 18 18 17 17 17 17
20 18 20 21 21 21 21 21 19 18 18 17 18 20 20 20 19 19 20 20 21 21 21 21 21 21 21 21 21 21 21 20 20 20 20 19 19 18 18 18 17 17 17 17
19 19 19 20 20 21 21 21 20 20 19 19 20 20 20 19 19 19 19 20 20 20 20 20 21 21 21 20 20 20 20 20 20 20 19 19 19 18 18 17 17 17 17 16
16 18 19 20 20 21 21 21 21 21 20 20 20 20 19 19 19 19 19 19 19 20 20 20 20 21 20 20 20 20 20 20 19 19 19 19 19 18 18 17 17 17 17 16
15 17 18 18 19 21 20 21 21 21 20 20 20 20 18 18 18 19 19 19 19 20 20 20 20 21 21 20 20 20 20 19 19 19 19 18 18 18 18 17 17 17 16 16
15 15 15 16 19 20 20 20 20 20 20 19 19 19 18 18 19 20 20 20 20 20 20 20 20 20 20 20 20 20 19 19 19 18 18 18 18 17 17 17 16 16 16 16
14 15 14 15 17 18 19 20 19 20 19 19 18 18 18 19 19 19 20 20 20 20 21 21 20 21 20 20 20 19 19 19 19 18 18 17 17 17 17 17 16 16 16 16
13 13 14 14 17 18 19 20 20 20 19 19 18 17 17 18 17 18 20 20 20 20 20 20 20 20 20 20 19 19 19 19 18 18 18 17 17 17 17 17 16 16 16 16
15 14 14 15 16 17 18 19 20 20 19 19 19 18 18 17 19 20 20 20 20 20 20 20 20 20 20 20 19 19 19 18 18 18 17 17 17 16 16 16 16 16 15 15
14 14 14 13 16 17 18 18 18 18 19 19 19 19 18 19 19 20 19 19 20 20 20 19 19 19 19 19 19 19 19 18 18 17 17 17 16 16 16 16 16 15 15 14
13 14 13 14 15 16 17 18 19 19 19 20 20 20 19 19 19 19 19 19 19 19 19 19 19 19 19 19 19 19 19 18 17 17 17 16 16 16 16 15 15 15 14 14
13 12 12 13 14 15 17 18 19 19 20 20 20 20 19 19 19 19 18 18 18 18 18 18 18 18 18 18 18 18 18 17 17 17 16 16 16 16 15 15 15 14 14 14
13 13 12 13 14 15 17 18 18 19 19 19 19 19 19 19 18 18 18 18 18 18 18 18 18 18 18 18 17 17 17 17 17 16 16 16 15 15 15 15 14 14 14 14
12 12 13 14 14 14 16 18 18 18 18 18 18 18 18 18 18 18 18 18 18 17 17 17 17 18 17 17 17 17 16 16 16 16 15 15 15 15 15 14 14 14 14 13
Wind_Speed
2 3 3 6 7 5 3 3 4 5 2 3 4 5 5 9 9 9 9 9 10 11 9 7 8 8 8 7 7 7 6 5 5 3 2 2 1 1 1 1 1 2 2 2
3 4 7 5 4 3 3 2 4 3 1 2 2 4 3 7 11 11 12 12 12 9 6 7 8 8 9 9 8 8 7 7 6 4 3 2 2 1 1 0 0 1 2 2
7 6 3 2 2 2 3 5 5 4 2 3 2 4 3 4 5 8 9 9 10 12 11 10 10 10 10 10 10 10 8 7 6 5 3 3 2 2 1 1 0 1 1 2
6 5 3 3 4 5 4 6 5 3 2 2 2 3 7 4 5 7 9 9 10 10 11 10 11 10 11 10 9 8 8 7 6 6 5 5 3 3 2 2 1 1 0 1
6 4 3 5 5 6 5 1 2 3 4 2 1 2 7 2 5 8 9 11 11 11 12 12 12 12 10 9 8 8 7 7 6 6 6 5 4 3 2 1 1 0 0 0
6 3 5 6 3 4 4 6 7 6 5 0 3 4 7 4 7 6 7 9 10 11 12 11 10 9 8 8 8 7 8 6 6 6 6 6 6 4 3 2 1 1 0 1
4 4 3 2 2 2 5 6 4 4 3 5 2 4 8 7 6 7 7 7 8 9 10 10 10 10 9 9 9 8 8 7 6 6 6 6 6 6 5 4 3 2 1 1
4 6 4 3 5 5 4 8 7 5 5 5 1 5 7 5 5 4 4 4 5 7 9 11 11 11 11 11 10 10 9 7 7 6 6 5 5 4 4 4 3 3 3 2
8 7 4 2 2 8 6 4 6 7 2 1 5 6 8 3 3 2 3 4 5 6 7 9 9 9 10 11 10 11 10 8 7 7 6 5 5 5 4 3 3 2 2 2
9 5 4 2 4 3 6 8 6 6 5 4 5 5 5 6 5 3 3 5 5 4 4 5 7 9 9 9 9 9 9 9 7 7 6 6 5 5 4 3 3 2 2 2
6 6 3 2 3 5 4 5 6 5 5 6 4 7 5 7 6 6 5 4 4 5 6 6 6 7 8 7 8 8 8 7 7 7 6 5 5 5 4 4 4 3 3 3
4 6 3 4 3 3 5 7 8 6 5 5 4 7 4 5 5 5 4 3 3 4 5 5 6 7 7 8 7 8 7 7 7 7 6 6 5 5 5 5 4 4 3 3
5 6 2 4 4 2 2 3 5 6 5 6 5 7 2 1 1 2 3 2 2 2 4 5 5 6 7 7 7 8 8 8 7 6 6 5 5 5 5 5 4 4 4 3
5 5 6 9 7 5 3 4 5 6 5 6 8 8 5 2 2 2 2 3 3 3 4 4 4 5 5 6 7 7 7 6 6 6 6 6 6 6 5 5 4 4 4 4
5 4 3 4 3 4 5 6 7 6 8 9 9 8 9 7 6 5 4 4 4 4 4 5 5 5 5 5 5 5 6 5 6 6 6 6 5 5 4 4 4 4 4 4
4 4 2 1 1 2 3 5 8 7 5 6 5 7 7 3 3 3 4 5 5 4 4 5 5 5 5 6 6 6 6 5 5 5 5 4 4 4 4 4 4 3 3 3
2 5 4 2 2 2 5 6 7 5 5 7 8 8 3 3 5 6 6 6 6 5 5 6 6 5 6 6 5 6 6 6 6 5 4 4 3 3 3 4 3 4 4 3
5 4 4 3 3 6 8 3 5 5 4 5 5 4 5 6 5 4 5 6 6 5 5 5 5 5 5 5 4 4 5 6 6 5 4 4 4 3 3 3 4 4 3 3
5 7 5 4 4 6 6 3 4 5 5 5 6 4 2 2 2 1 2 4 6 6 6 5 6 5 5 6 5 5 5 6 5 5 5 4 5 4 4 4 4 4 3 3
4 4 6 5 4 7 7 4 2 4 4 4 6 6 5 5 3 5 3 3 3 3 3 3 4 4 5 5 7 7 6 6 6 6 5 5 5 5 5 5 4 3 3 3
2 3 4 5 5 7 7 3 3 5 7 4 6 7 8 7 6 3 3 3 3 2 2 3 4 4 5 6 7 6 6 7 6 4 4 4 4 5 4 3 3 3 3 2
5 5 4 4 4 7 4 3 6 7 3 3 5 6 7 4 2 2 3 3 2 2 2 3 3 2 3 6 7 6 6 5 4 4 4 4 4 3 3 3 2 3 3 2
5 7 6 8 8 5 3 5 4 3 3 3 4 4 5 4 2 2 3 3 2 2 2 3 4 3 2 3 5 6 4 4 5 4 4 4 3 2 3 3 3 3 3 2
3 2 3 3 6 5 5 4 3 3 4 4 3 4 5 4 4 3 3 3 3 2 3 3 3 3 1 1 2 2 2 4 5 5 4 3 3 3 2 2 3 3 3 3
5 2 2 4 6 5 5 4 4 3 2 2 2 3 5 6 4 4 4 3 3 2 2 3 4 3 2 1 1 1 2 4 5 4 4 3 3 3 2 2 2 3 3 4
5 6 6 7 7 5 7 6 4 3 3 3 3 3 3 5 5 4 4 4 4 4 3 3 3 3 2 1 1 1 3 5 5 4 3 3 2 2 3 2 1 2 1 0
Wind_Direction
77 85 217 216 199 200 187 211 254 266 235 161 215 235 219 190 192 199 199 199 205 213 211 192 184 178 171 171 174 178 176 174 158 150 154 159 186 197 188 204 196 197 197 179
35 261 233 205 192 180 185 235 268 293 7 152 224 267 243 199 203 203 202 203 206 206 192 184 180 179 181 180 182 183 183 177 172 172 166 164 155 164 166 73 85 190 196 192
204 237 215 195 208 186 223 206 229 223 18 50 76 328 281 246 214 212 211 205 203 199 194 192 189 190 186 188 190 193 188 180 176 165 139 116 84 61 64 72 138 243 207 199
231 246 209 216 225 178 251 229 203 176 119 323 79 279 285 257 239 223 219 209 207 202 193 193 192 190 193 196 191 186 181 178 173 163 159 158 166 180 199 193 206 257 198 178
234 210 195 226 228 176 215 241 129 128 130 61 32 172 285 291 248 242 227 216 211 200 194 194 195 193 191 187 183 180 173 175 172 167 167 165 167 176 168 150 160 223 348 166
234 229 204 214 219 170 152 71 59 53 72 291 231 179 272 244 229 242 226 217 210 199 195 194 192 184 179 173 175 173 172 181 175 170 170 170 171 170 160 163 182 237 287 272
291 287 258 172 124 59 92 94 40 1 1 251 220 193 248 256 242 228 223 213 201 191 189 186 183 181 179 176 176 173 172 180 179 174 175 179 180 178 182 186 195 201 218 238
202 271 246 196 174 173 168 143 158 197 226 270 282 230 255 269 270 238 211 195 180 183 186 187 189 185 183 182 177 172 175 177 173 175 182 180 176 180 190 190 189 196 208 224
185 240 274 222 171 142 140 160 162 138 150 269 275 281 299 287 290 250 195 174 184 190 187 188 184 179 178 179 178 174 172 174 176 181 181 180 180 182 190 183 180 191 205 208
167 218 276 269 84 53 140 142 103 127 157 240 281 274 256 267 261 244 213 199 194 173 166 172 175 177 176 177 175 169 170 178 182 181 185 188 187 187 183 168 178 191 198 189
151 174 289 56 156 183 119 111 114 123 153 167 238 266 232 225 224 219 224 211 181 168 166 167 170 170 165 164 166 168 172 172 178 185 184 186 186 185 178 183 190 188 184 181
147 138 221 255 259 190 158 161 149 159 202 176 185 260 275 221 213 203 219 208 179 167 162 159 155 150 156 163 167 171 173 177 184 183 180 183 184 181 187 197 198 186 186 191
134 122 118 338 340 20 115 146 148 131 126 157 178 257 302 35 158 190 193 175 152 141 139 136 140 151 160 166 171 175 177 181 180 176 176 180 188 192 200 205 200 193 191 196
126 122 168 199 215 195 188 180 156 136 153 190 214 239 280 271 223 207 181 161 145 138 133 133 146 159 167 170 174 176 180 179 171 169 175 185 197 202 206 205 200 197 197 197
106 141 192 220 221 180 194 194 182 183 184 187 218 220 243 231 211 202 174 154 150 150 152 154 159 168 169 167 172 176 178 173 170 171 183 196 197 195 196 198 198 196 196 199
78 141 141 254 286 198 220 217 200 205 193 203 208 242 246 228 165 156 158 160 166 176 179 174 170 170 176 175 179 178 178 177 168 177 195 198 187 189 198 202 196 192 194 186
100 128 126 232 295 56 252 226 202 200 198 180 205 230 203 190 198 191 180 173 179 188 192 190 187 189 191 188 180 183 183 170 170 184 192 190 186 192 199 192 180 184 182 181
148 127 136 149 113 216 242 251 193 188 221 209 222 229 199 206 214 199 177 176 182 192 199 205 201 197 194 181 170 169 162 163 170 180 188 187 183 190 185 175 188 191 185 192
164 145 132 139 185 259 291 250 172 177 246 217 200 200 183 137 77 311 207 187 192 195 201 204 198 190 179 167 158 150 159 162 167 181 191 192 189 189 187 192 200 195 189 202
73 108 126 140 171 223 242 253 187 129 261 237 183 176 159 127 157 243 227 203 200 189 186 191 176 162 166 164 154 149 167 171 186 196 198 193 189 190 194 199 197 190 190 204
75 76 137 164 205 253 258 272 129 168 238 228 181 176 168 180 207 219 190 188 181 170 169 160 147 156 173 160 153 160 174 193 200 189 183 186 192 194 189 181 181 181 186 193
173 161 179 161 191 247 269 140 181 218 242 191 181 180 177 183 167 152 157 155 142 122 120 127 122 132 157 155 157 170 192 198 175 169 174 182 185 187 175 164 174 170 172 183
199 190 186 192 214 240 243 222 240 202 205 212 188 188 168 161 165 156 143 131 128 127 121 111 118 109 104 154 164 178 199 170 154 156 170 177 172 170 165 165 165 161 164 180
264 157 159 247 265 270 275 272 273 225 220 218 190 171 162 165 163 157 148 140 136 133 130 121 120 115 106 118 150 184 181 156 153 162 172 169 163 161 154 155 165 170 179 188
240 189 190 253 277 304 299 278 267 285 265 215 178 170 165 156 163 172 168 168 164 150 141 144 150 155 174 146 128 169 169 156 160 166 170 167 162 157 152 149 168 186 194 198
212 194 191 231 239 228 261 267 258 242 233 190 164 164 164 165 171 171 181 185 172 162 154 154 163 162 169 144 171 201 171 159 157 163 173 170 164 163 159 153 94 39 66 80
Height
1493 1499 1504 1502 1500 1501 1504 1508 1511 1505 1498 1502 1505 1505 1503 1503 1505 1507 1508 1510 1512 1513 1516 1519 1522 1524 1527 1529 1531 1533 1534 1536 1538 1539 1540 1541 1542 1543 1544 1545 1546 1546 1547 1547
1498 1501 1494 1493 1495 1498 1502 1508 1509 1504 1498 1502 1506 1505 1501 1501 1502 1502 1504 1506 1508 1511 1514 1517 1520 1522 1524 1527 1529 1531 1533 1535 1537 1538 1540 1541 1542 1543 1543 1544 1545 1545 1546 1546
1497 1494 1489 1492 1495 1499 1502 1506 1506 1506 1502 1502 1506 1510 1504 1499 1499 1501 1502 1503 1505 1508 1511 1514 1516 1519 1522 1524 1527 1529 1531 1533 1535 1537 1539 1540 1541 1542 1543 1543 1544 1544 1545 1545
1493 1488 1488 1491 1494 1496 1504 1495 1497 1501 1510 1518 1513 1527 1509 1501 1499 1498 1498 1500 1501 1504 1507 1510 1513 1516 1518 1522 1525 1527 1530 1532 1534 1536 1537 1538 1539 1540 1541 1542 1542 1543 1543 1544
1491 1486 1488 1492 1490 1490 1495 1491 1495 1502 1511 1520 1517 1526 1516 1502 1502 1496 1495 1495 1497 1500 1503 1506 1509 1512 1516 1519 1522 1525 1528 1530 1532 1534 1535 1537 1538 1539 1540 1540 1541 1542 1542 1542
1485 1482 1483 1484 1484 1486 1488 1495 1502 1511 1519 1530 1521 1526 1520 1505 1498 1492 1491 1491 1492 1496 1499 1502 1506 1510 1513 1517 1520 1523 1525 1528 1530 1532 1534 1535 1536 1537 1538 1538 1539 1540 1540 1540
1489 1484 1480 1481 1486 1488 1492 1509 1528 1531 1539 1534 1519 1521 1515 1494 1489 1488 1487 1488 1489 1492 1495 1499 1502 1506 1509 1513 1516 1520 1522 1525 1527 1529 1531 1532 1534 1535 1535 1536 1537 1537 1538 1538
1500 1499 1483 1479 1483 1490 1494 1503 1527 1538 1541 1532 1520 1521 1504 1489 1486 1485 1485 1486 1487 1489 1492 1495 1498 1502 1505 1509 1512 1516 1519 1522 1525 1527 1528 1530 1531 1532 1533 1534 1535 1535 1536 1536
1498 1496 1479 1476 1477 1482 1495 1504 1503 1522 1528 1533 1526 1514 1497 1486 1485 1483 1483 1484 1485 1486 1489 1492 1495 1499 1502 1506 1509 1512 1516 1519 1522 1524 1526 1528 1529 1530 1531 1532 1532 1533 1534 1534
1484 1493 1482 1477 1477 1481 1486 1496 1511 1522 1534 1537 1525 1517 1509 1492 1486 1483 1482 1482 1483 1485 1488 1490 1493 1496 1499 1503 1506 1510 1513 1516 1518 1521 1523 1525 1526 1527 1528 1529 1530 1531 1532 1532
1478 1490 1488 1483 1485 1489 1491 1498 1507 1519 1521 1532 1534 1518 1489 1486 1483 1482 1480 1481 1482 1484 1486 1488 1491 1494 1497 1501 1504 1508 1511 1513 1516 1518 1520 1522 1523 1524 1526 1527 1528 1529 1529 1530
1478 1489 1497 1488 1480 1478 1482 1490 1501 1513 1520 1524 1526 1513 1480 1479 1479 1480 1480 1481 1482 1483 1485 1487 1490 1492 1496 1499 1502 1505 1508 1510 1513 1515 1517 1518 1520 1522 1523 1524 1524 1526 1526 1527
1477 1489 1502 1499 1494 1485 1485 1488 1493 1501 1513 1523 1523 1507 1479 1478 1478 1479 1480 1480 1482 1483 1485 1487 1489 1491 1494 1497 1500 1503 1505 1508 1510 1512 1514 1516 1517 1518 1519 1520 1522 1523 1523 1524
1471 1486 1494 1500 1495 1487 1486 1487 1490 1497 1510 1515 1509 1496 1483 1479 1479 1478 1479 1480 1481 1483 1485 1486 1488 1490 1493 1495 1498 1500 1503 1505 1508 1510 1511 1513 1514 1515 1516 1517 1518 1519 1520 1521
1471 1484 1483 1482 1479 1480 1481 1482 1485 1488 1492 1499 1493 1490 1480 1477 1477 1477 1478 1479 1481 1482 1484 1486 1488 1490 1492 1494 1496 1498 1501 1503 1505 1507 1508 1510 1511 1512 1514 1514 1515 1516 1517 1517
1474 1482 1482 1482 1479 1478 1480 1478 1478 1480 1482 1485 1484 1483 1473 1473 1475 1476 1476 1478 1479 1481 1484 1485 1487 1488 1490 1492 1494 1496 1499 1501 1503 1505 1506 1507 1508 1509 1510 1511 1512 1513 1514 1514
1479 1482 1489 1492 1484 1481 1486 1476 1475 1476 1475 1478 1481 1475 1471 1472 1472 1473 1474 1476 1478 1480 1482 1484 1485 1486 1488 1490 1492 1494 1496 1499 1501 1503 1504 1505 1506 1507 1507 1508 1509 1509 1510 1511
1478 1484 1492 1495 1490 1498 1480 1467 1467 1470 1470 1470 1470 1468 1468 1468 1469 1471 1472 1474 1475 1477 1479 1481 1483 1485 1487 1489 1491 1493 1495 1497 1499 1500 1502 1503 1504 1504 1505 1506 1506 1507 1508 1509
1472 1480 1492 1498 1497 1489 1475 1466 1467 1470 1471 1465 1467 1467 1467 1468 1469 1470 1471 1472 1474 1476 1478 1479 1480 1482 1485 1486 1488 1491 1493 1495 1497 1498 1499 1500 1501 1502 1502 1502 1503 1504 1505 1505
1473 1476 1488 1495 1493 1494 1475 1462 1461 1466 1472 1462 1463 1464 1466 1467 1473 1470 1468 1470 1472 1474 1476 1477 1478 1480 1482 1484 1487 1489 1491 1493 1494 1496 1497 1498 1499 1499 1499 1500 1500 1501 1502 1502
1479 1483 1487 1491 1490 1482 1466 1461 1461 1476 1471 1460 1460 1461 1463 1465 1466 1466 1467 1469 1471 1472 1474 1475 1476 1477 1480 1482 1484 1486 1489 1490 1492 1494 1495 1496 1496 1497 1497 1498 1498 1498 1499 1499
1477 1482 1486 1489 1489 1482 1461 1461 1464 1463 1457 1457 1457 1458 1460 1462 1463 1464 1466 1467 1469 1470 1472 1473 1474 1476 1478 1480 1482 1484 1486 1488 1491 1492 1492 1493 1494 1495 1495 1495 1496 1496 1496 1496
1472 1471 1472 1474 1472 1461 1458 1458 1457 1456 1456 1456 1456 1457 1459 1461 1462 1463 1465 1466 1468 1469 1471 1472 1474 1475 1477 1479 1481 1482 1484 1486 1488 1489 1490 1491 1492 1492 1492 1493 1493 1493 1493 1493
1466 1465 1467 1467 1461 1457 1456 1455 1454 1454 1455 1455 1455 1456 1458 1459 1461 1462 1464 1465 1467 1468 1470 1471 1473 1474 1475 1477 1479 1481 1482 1484 1485 1486 1487 1488 1489 1489 1490 1490 1490 1490 1490 1490
1463 1464 1465 1464 1458 1455 1453 1452 1453 1452 1453 1453 1454 1455 1457 1458 1460 1461 1462 1464 1465 1467 1469 1471 1472 1473 1474 1475 1477 1479 1480 1481 1482 1484 1485 1485 1486 1486 1487 1487 1487 1488 1488 1488
1459 1460 1461 1459 1454 1454 1451 1450 1450 1450 1450 1451 1452 1453 1455 1457 1458 1460 1461 1462 1463 1465 1467 1469 1470 1471 1472 1473 1476 1477 1478 1479 1480 1481 1482 1483 1484 1484 1485 1485 1485 1485 1486 1486